{"data":{"norad_id":54184,"epoch":"2026-05-25T01:45:47.591136Z","epoch_age_seconds":68989,"freshness":"FRESH","line1":"1 54184U 22141AD  26145.07346749 -.00000663  00000+0 -23552-4 0  9997","line2":"2 54184  53.2148  21.5811 0001269  86.9354 273.1783 15.08849141197388","mean_motion":15.08849141,"eccentricity":0.0001269,"inclination_deg":53.2148,"raan_deg":21.5811,"arg_perigee_deg":86.9354,"mean_anomaly_deg":273.1783,"bstar":-2.3552e-5,"rev_number":19738,"period_min":95.436976492271,"perigee_km":538.83757324933,"apogee_km":540.59332420082,"semimajor_km":6917.8524487251,"source":"CELESTRAK","updated_at":"2026-05-25T13:38:17.681202Z"}}